Temperature
6 6 6 6 6 6 5 5 5 4 4 4 4 4 4 4 4 4 4 4 3 3 3 3 3 2 2 2 2 2 2 2 2 2 2 2 2 2
6 6 6 6 5 5 5 5 4 4 3 4 4 4 4 4 4 3 3 3 3 3 3 3 2 2 2 2 2 2 2 2 2 2 2 2 2 2
6 5 5 5 5 5 5 4 4 3 3 4 4 4 3 3 3 3 3 3 3 3 3 2 2 2 2 2 1 1 1 1 1 1 1 1 1 1
5 5 5 5 5 4 4 4 4 3 3 3 3 3 3 3 3 3 3 3 3 2 2 2 2 2 1 1 1 1 1 1 1 1 1 1 1 1
5 5 4 4 4 4 4 4 3 3 3 2 2 3 2 2 2 2 2 2 2 2 2 2 2 1 1 1 1 1 1 1 0 0 0 0 0 1
4 4 4 4 4 4 3 3 3 3 2 2 2 2 2 2 2 2 2 2 2 2 2 2 1 1 1 1 1 0 0 0 0 0 0 0 0 0
4 3 3 3 3 3 3 3 3 2 2 2 2 2 2 1 1 1 1 1 1 1 1 1 1 1 1 1 0 0 -0 -0 -0 -0 -0 -0 -0 -0
3 3 3 3 3 2 2 2 2 2 2 1 1 1 1 1 0 0 0 -0 -0 0 0 1 1 1 1 0 0 -0 -0 -0 -0 -1 -0 -0 -0 -0
2 2 2 2 2 2 2 2 2 1 1 1 1 1 0 0 -0 -0 -0 -1 -1 -0 -1 -0 0 1 0 0 -0 -1 -1 -1 -1 -1 -1 -1 -1 -1
2 2 2 1 2 2 2 1 1 1 1 1 0 0 0 -0 -0 -1 -1 -1 -1 -1 -1 -1 -0 -0 0 0 -0 -1 -1 -1 -1 -1 -1 -1 -1 -1
1 1 1 1 1 1 1 1 1 1 1 0 0 -0 -0 -0 -1 -1 -1 -1 -2 -1 -2 -2 -2 -1 -0 -0 -0 -1 -1 -1 -1 -1 -1 -1 -1 -1
1 0 1 1 1 1 1 1 1 1 0 0 0 -0 -0 -0 -1 -1 -2 -2 -3 -3 -2 -3 -3 -3 -2 -1 -1 -1 -1 -1 -1 -1 -1 -1 -1 -1
0 0 0 0 0 0 0 0 0 0 -0 -0 -0 -0 -0 -1 -1 -1 -2 -2 -3 -3 -3 -3 -3 -3 -3 -3 -1 -1 -1 -1 -1 -1 -1 -1 -1 -1
-0 -0 -0 -0 -0 -0 -0 -0 -0 -1 -1 -1 -1 -1 -1 -1 -1 -1 -2 -2 -2 -3 -3 -3 -3 -3 -4 -4 -3 -2 -2 -2 -2 -2 -1 -1 -1 -1
-1 -1 -1 -1 -1 -1 -1 -1 -1 -1 -1 -1 -1 -1 -1 -2 -2 -2 -2 -2 -2 -2 -3 -3 -3 -3 -3 -4 -4 -3 -2 -2 -2 -2 -2 -2 -2 -2
-1 -1 -1 -1 -1 -1 -1 -1 -1 -1 -1 -1 -1 -2 -2 -2 -2 -2 -2 -2 -2 -2 -2 -3 -3 -3 -3 -3 -3 -3 -3 -3 -3 -2 -2 -2 -2 -2
-2 -2 -1 -1 -1 -1 -1 -1 -2 -2 -2 -2 -2 -2 -2 -2 -2 -2 -3 -3 -3 -3 -3 -3 -3 -3 -3 -3 -3 -3 -3 -3 -3 -3 -3 -2 -2 -2
-2 -2 -2 -2 -2 -2 -2 -2 -2 -2 -2 -2 -2 -2 -3 -3 -3 -3 -3 -3 -3 -3 -3 -3 -3 -3 -3 -3 -3 -3 -3 -3 -3 -3 -3 -3 -2 -2
-2 -2 -2 -2 -2 -2 -2 -2 -3 -3 -3 -3 -3 -3 -3 -3 -3 -4 -4 -4 -4 -4 -4 -4 -4 -4 -4 -4 -3 -3 -3 -3 -3 -3 -3 -3 -3 -2
-3 -3 -3 -3 -3 -3 -3 -3 -3 -3 -3 -3 -3 -4 -4 -4 -4 -4 -4 -4 -4 -4 -4 -4 -4 -4 -5 -5 -4 -3 -4 -4 -4 -3 -3 -3 -3 -3
-3 -3 -3 -3 -3 -3 -3 -3 -3 -3 -4 -4 -4 -4 -4 -4 -4 -4 -4 -4 -4 -4 -4 -4 -4 -4 -4 -4 -4 -4 -3 -4 -4 -4 -4 -3 -3 -3
-3 -3 -3 -3 -4 -3 -3 -4 -4 -4 -4 -4 -4 -4 -5 -5 -5 -5 -5 -5 -5 -4 -4 -4 -4 -4 -4 -4 -4 -4 -4 -3 -3 -4 -4 -4 -4 -4
-4 -4 -4 -4 -4 -4 -4 -4 -4 -4 -4 -5 -5 -5 -5 -5 -5 -5 -5 -5 -5 -5 -4 -4 -4 -4 -4 -4 -4 -4 -4 -4 -3 -3 -3 -4 -4 -4
Wind_Speed
3 2 1 1 1 0 1 2 1 2 2 2 1 2 5 5 8 8 9 11 13 13 14 14 15 16 16 17 17 18 19 20 20 20 21 21 21 21
2 2 2 1 1 1 0 0 1 1 2 2 2 3 5 6 8 8 9 12 12 13 14 15 15 16 16 17 17 18 19 20 20 21 21 21 21 21
2 2 2 2 1 1 0 0 1 1 3 3 2 3 4 4 7 8 9 9 10 13 14 15 15 16 16 17 17 18 19 19 20 20 21 20 20 21
3 2 2 1 1 1 1 1 1 1 2 4 3 3 4 4 5 6 8 9 9 12 14 16 16 16 16 17 17 18 18 19 19 20 20 20 20 20
3 2 2 2 1 0 0 1 1 1 1 2 3 3 3 4 5 6 7 7 9 11 13 14 16 17 17 17 17 18 18 18 19 19 20 20 20 20
2 2 2 2 1 1 1 1 1 1 1 1 3 3 3 4 4 5 7 6 7 9 11 12 15 16 16 17 17 17 18 18 19 19 19 19 19 19
2 2 2 2 1 1 0 1 1 0 1 2 2 3 4 4 4 4 6 7 7 5 6 8 9 8 11 15 16 18 18 18 18 19 19 19 19 19
2 2 1 1 1 0 1 1 1 1 1 1 2 3 4 4 4 5 5 6 5 4 7 8 6 6 7 10 16 18 17 18 19 19 18 19 19 19
2 2 1 1 1 0 1 2 2 2 2 1 2 3 4 4 4 4 5 5 6 6 6 7 6 7 7 13 17 17 17 18 19 19 19 19 20 20
1 2 1 1 1 1 1 1 1 2 2 2 2 3 3 3 3 3 4 5 5 4 3 5 5 6 8 10 14 17 18 19 19 19 20 20 20 20
1 2 2 1 1 2 1 1 2 2 5 5 5 5 6 6 6 3 4 5 5 4 3 3 5 7 6 5 10 17 18 18 19 20 20 20 20 19
1 1 2 2 2 2 1 1 1 2 3 4 5 5 5 5 6 3 2 3 4 4 3 4 4 6 5 4 6 10 13 16 19 19 19 19 20 13
1 1 1 1 2 2 1 0 1 2 2 2 3 3 3 3 4 4 3 2 3 4 4 4 4 4 4 6 6 7 8 9 11 13 16 19 20 15
1 1 1 2 2 2 2 2 3 3 1 2 2 3 3 4 3 5 6 5 4 5 6 5 3 4 5 6 6 7 8 9 8 8 9 16 17 18
1 1 1 2 2 2 2 3 3 2 2 2 2 3 3 3 4 4 5 6 6 6 6 5 4 4 4 5 6 7 7 7 7 7 8 9 9 9
2 2 2 3 2 2 2 2 1 1 1 1 2 3 3 3 3 3 4 5 4 5 6 7 5 4 5 6 6 7 7 5 8 9 9 8 9 8
1 1 1 1 1 2 2 2 2 2 2 2 2 3 3 3 4 4 4 4 4 5 6 6 7 5 4 5 5 5 6 6 7 8 9 9 8 8
1 1 1 1 1 1 1 1 2 2 2 2 2 2 3 4 4 4 4 4 5 5 6 6 7 6 4 3 2 4 5 6 7 7 7 7 8 8
1 1 1 0 0 0 1 1 1 2 2 2 2 2 3 3 4 4 4 4 5 5 5 5 5 6 7 7 5 4 5 7 7 7 6 6 6 8
1 1 0 0 0 0 1 1 1 1 1 2 2 2 2 3 3 4 4 4 5 5 5 5 5 5 5 5 5 6 8 6 6 7 6 5 5 7
1 1 0 0 1 1 1 1 1 1 1 2 2 3 2 2 3 3 4 6 5 5 6 6 6 8 4 3 4 5 5 9 8 5 6 6 6 6
1 0 0 0 0 0 1 1 1 1 1 2 2 2 2 2 3 4 4 4 4 5 5 5 5 5 4 4 5 6 6 7 10 11 9 6 4 5
0 0 0 0 0 0 0 1 1 1 1 2 2 2 3 3 3 3 3 4 4 5 5 5 5 4 4 4 4 5 7 7 6 7 7 12 12 10
Wind_Direction
144 142 143 114 77 70 123 153 175 274 276 285 324 323 338 332 326 322 317 319 323 324 324 324 324 324 324 325 326 326 325 324 323 323 323 320 319 321
148 144 146 153 122 87 152 209 187 211 264 280 299 315 326 327 320 318 314 321 322 324 324 323 324 324 325 325 325 326 326 325 325 325 324 324 324 323
146 152 162 158 143 143 147 227 246 218 260 292 299 318 319 317 321 319 317 317 316 323 326 326 323 325 326 327 326 327 327 326 326 326 326 326 326 325
157 153 161 145 156 183 197 234 259 244 242 289 306 323 317 314 317 320 325 324 320 321 326 326 326 327 329 328 327 328 328 329 328 328 328 328 328 327
153 153 162 143 177 225 238 262 275 304 289 286 306 317 316 323 325 324 325 322 324 321 324 326 328 328 329 329 329 329 329 329 329 330 330 330 330 329
150 159 158 152 188 212 228 269 287 319 320 304 303 310 315 322 329 329 330 330 325 321 324 327 327 328 329 330 330 330 330 330 331 332 333 333 332 331
146 150 147 152 186 208 221 234 245 271 295 298 307 318 318 328 326 324 327 326 319 320 329 324 324 322 325 328 331 332 331 332 334 335 335 336 336 334
145 131 152 172 176 281 330 340 341 253 261 273 298 303 307 312 316 326 329 329 322 333 333 319 325 322 323 325 329 333 335 338 340 341 340 340 339 337
148 145 153 123 90 134 335 6 354 329 306 278 278 286 295 305 314 319 321 314 303 311 325 311 319 319 323 327 332 337 340 343 344 343 342 341 341 340
144 145 153 140 106 72 41 18 348 343 336 333 279 286 298 302 296 302 301 305 299 305 327 308 316 318 322 323 333 344 344 344 344 345 345 343 342 341
118 132 134 124 76 52 57 32 6 356 358 355 344 339 341 346 352 350 339 338 325 319 336 325 316 321 316 314 331 341 342 342 343 345 345 346 345 342
77 76 97 92 58 52 69 74 344 330 343 350 354 356 354 357 359 352 324 324 324 320 339 340 322 335 326 313 326 337 339 338 340 341 343 346 347 346
110 81 58 60 39 35 39 46 322 340 338 343 346 349 353 351 343 338 329 305 308 300 315 334 318 326 311 312 317 327 337 338 339 339 341 344 347 349
104 90 38 29 27 29 24 20 18 19 10 356 351 348 345 341 334 332 336 328 306 291 301 315 303 311 318 316 314 322 330 338 342 342 344 343 344 344
81 82 52 38 32 36 39 36 35 29 15 6 347 338 332 325 329 336 339 339 331 325 324 319 311 310 307 307 309 317 324 329 340 344 345 345 343 342
77 63 56 53 45 38 39 42 35 26 17 350 332 333 332 334 340 343 340 340 341 337 341 340 336 326 321 304 304 311 321 325 333 336 339 341 344 347
91 62 48 46 43 34 35 27 18 17 14 352 348 344 341 345 343 345 343 343 346 339 339 338 337 328 308 299 305 312 322 326 332 338 341 343 343 350
92 94 78 64 45 27 18 5 4 4 360 354 350 344 344 346 345 343 346 347 342 338 337 337 341 342 343 339 308 312 331 332 334 337 342 344 343 348
87 94 86 73 34 18 2 355 346 347 353 353 346 341 341 343 341 341 344 344 340 337 336 340 346 354 356 351 339 351 340 335 337 339 343 342 337 335
54 82 90 71 19 335 330 337 346 347 352 354 345 338 337 335 335 337 338 336 336 336 339 344 350 348 341 327 321 324 337 334 338 341 340 338 334 330
50 39 53 57 9 345 340 339 337 335 346 348 338 331 329 330 330 332 332 336 340 338 338 340 333 335 325 322 329 337 337 343 341 337 340 340 343 355
70 39 360 356 330 341 354 337 330 342 352 346 331 328 330 331 328 328 330 332 334 333 330 329 335 345 352 352 342 337 339 343 353 358 3 4 355 357
99 355 327 330 336 359 2 337 337 346 348 334 329 329 330 330 327 324 325 329 334 337 337 338 345 350 351 346 343 343 346 349 353 360 3 5 6 1
Height
1498 1499 1500 1501 1502 1502 1502 1502 1502 1500 1499 1499 1498 1497 1496 1494 1492 1490 1487 1485 1482 1479 1476 1473 1470 1467 1463 1459 1455 1451 1447 1443 1439 1434 1430 1426 1422 1418
1496 1497 1497 1498 1499 1499 1499 1499 1499 1498 1496 1495 1495 1494 1493 1491 1489 1487 1484 1482 1479 1476 1473 1470 1467 1463 1459 1456 1451 1447 1443 1439 1435 1430 1426 1421 1417 1413
1493 1494 1494 1495 1495 1496 1496 1496 1496 1495 1493 1492 1492 1491 1489 1487 1485 1484 1481 1478 1475 1472 1469 1466 1463 1460 1456 1452 1448 1444 1439 1435 1431 1426 1422 1418 1413 1409
1489 1490 1491 1492 1492 1493 1493 1493 1492 1492 1491 1489 1488 1487 1486 1484 1482 1480 1478 1475 1472 1469 1466 1463 1460 1456 1452 1448 1444 1440 1436 1431 1427 1423 1418 1414 1409 1405
1487 1488 1488 1489 1489 1490 1490 1490 1490 1489 1488 1487 1485 1484 1483 1481 1479 1477 1475 1472 1469 1466 1463 1460 1456 1452 1448 1444 1440 1436 1432 1428 1423 1419 1414 1410 1405 1401
1484 1485 1486 1486 1486 1487 1487 1487 1486 1486 1485 1484 1483 1481 1480 1478 1476 1473 1470 1468 1465 1463 1459 1456 1453 1449 1445 1441 1437 1433 1429 1424 1420 1415 1411 1406 1402 1398
1482 1482 1483 1484 1484 1484 1484 1484 1484 1483 1483 1482 1480 1478 1477 1475 1473 1470 1468 1465 1462 1459 1455 1453 1449 1446 1442 1438 1433 1429 1425 1421 1417 1412 1408 1403 1399 1395
1479 1480 1481 1481 1481 1481 1482 1482 1481 1481 1480 1479 1477 1476 1474 1473 1471 1468 1466 1462 1458 1457 1453 1450 1447 1443 1439 1435 1431 1427 1423 1418 1414 1409 1405 1400 1396 1392
1476 1477 1478 1478 1479 1479 1479 1479 1479 1478 1478 1477 1475 1474 1472 1471 1469 1467 1464 1462 1458 1455 1451 1446 1444 1440 1437 1433 1429 1425 1420 1416 1412 1407 1403 1398 1394 1389
1474 1475 1476 1476 1476 1476 1476 1476 1476 1475 1475 1474 1474 1472 1471 1469 1468 1466 1463 1460 1457 1454 1450 1444 1440 1437 1434 1430 1427 1423 1419 1414 1410 1405 1401 1396 1392 1387
1472 1473 1473 1474 1474 1474 1474 1473 1473 1473 1473 1472 1471 1470 1469 1467 1465 1463 1460 1457 1453 1450 1448 1444 1439 1434 1430 1428 1425 1421 1417 1413 1408 1404 1399 1394 1390 1385
1470 1471 1471 1472 1472 1472 1472 1471 1471 1470 1470 1469 1469 1468 1467 1465 1463 1461 1458 1456 1452 1449 1446 1443 1438 1434 1428 1425 1423 1419 1415 1411 1407 1402 1398 1393 1389 1384
1468 1469 1469 1470 1470 1470 1470 1469 1469 1468 1468 1467 1466 1465 1464 1463 1461 1459 1457 1455 1452 1449 1446 1443 1439 1435 1431 1425 1420 1418 1414 1409 1405 1401 1397 1393 1388 1383
1466 1467 1467 1468 1468 1468 1468 1467 1467 1466 1466 1465 1464 1463 1462 1460 1459 1457 1455 1453 1451 1448 1445 1442 1439 1435 1430 1425 1420 1416 1413 1409 1405 1400 1396 1392 1388 1383
1464 1465 1466 1466 1466 1466 1466 1466 1465 1464 1464 1463 1462 1461 1460 1458 1457 1455 1453 1451 1449 1447 1444 1441 1438 1434 1430 1426 1421 1416 1412 1408 1405 1400 1396 1391 1387 1382
1463 1463 1464 1464 1464 1464 1464 1464 1463 1463 1462 1461 1460 1459 1458 1457 1455 1453 1451 1449 1446 1445 1443 1440 1437 1433 1429 1426 1422 1417 1413 1409 1405 1400 1396 1392 1388 1384
1461 1461 1462 1462 1462 1462 1462 1462 1461 1461 1460 1459 1458 1457 1456 1454 1453 1451 1449 1447 1445 1442 1440 1438 1435 1432 1429 1425 1421 1418 1414 1410 1406 1401 1396 1392 1389 1385
1460 1460 1460 1460 1460 1460 1460 1460 1460 1459 1458 1458 1457 1456 1454 1453 1451 1450 1448 1446 1444 1442 1439 1436 1433 1430 1427 1423 1422 1417 1414 1410 1406 1402 1398 1393 1389 1386
1458 1458 1458 1459 1459 1459 1459 1458 1458 1457 1457 1456 1455 1454 1453 1452 1450 1449 1447 1446 1443 1441 1439 1436 1433 1429 1426 1422 1421 1419 1414 1410 1406 1403 1399 1396 1391 1388
1456 1457 1457 1457 1457 1457 1457 1457 1456 1456 1455 1454 1454 1453 1452 1451 1449 1448 1446 1445 1443 1441 1438 1436 1434 1431 1428 1426 1422 1419 1416 1412 1408 1404 1400 1397 1394 1390
1454 1455 1455 1455 1455 1455 1455 1455 1454 1454 1453 1452 1452 1451 1450 1449 1448 1447 1446 1444 1443 1440 1438 1436 1434 1432 1429 1426 1423 1420 1417 1414 1410 1407 1402 1398 1394 1390
1453 1453 1453 1454 1454 1454 1453 1453 1452 1452 1451 1451 1450 1449 1449 1448 1447 1446 1445 1444 1442 1440 1438 1437 1435 1432 1429 1426 1423 1420 1418 1415 1412 1409 1405 1402 1398 1394
1451 1451 1452 1452 1452 1452 1452 1451 1451 1450 1450 1449 1449 1448 1448 1447 1446 1446 1444 1443 1442 1440 1439 1436 1435 1432 1430 1427 1425 1422 1419 1416 1413 1410 1408 1405 1402 1399